Location: Sternwarte ZA, Rosenfeld-Brittheim
(48.2889°N, 8.6789°E)
Time: 14:12:47
(UTC+02:00)

ISS - Pass Details

Date: 17 May 2018
Orbit: 402 x 407 km, 51.6° (Epoch: 25 May)

Event Time Altitude Azimuth Distance (km) Brightness Sun altitude
Exits shadow 01:06:26 13° 73° (ENE) 1,309 -1.1 -22.4°
Drops below altitude 10° 01:06:52 10° 72° (ENE) 1,483 -0.8 -22.4°
Sets 01:08:54 0° 68° (ENE) 2,320 0.3 -22.4°
